Time,TemperatureF,DewpointF,PressureIn,WindDirection,WindDirectionDegrees,WindSpeedMPH,WindSpeedGustMPH,Humidity,HourlyPrecipIn,Conditions,Clouds,dailyrainin,SoftwareType,DateUTC
2013-08-08 00:04:00,64.0,57.4,30.07,ESE,121,0.0,0.0,79,0.00,,,0.00,Wunderground v.1.15,2013-08-08 04:04:00,
2013-08-08 00:09:00,63.9,57.3,30.08,ESE,121,0.0,0.0,79,0.00,,,0.00,Wunderground v.1.15,2013-08-08 04:09:00,
2013-08-08 00:14:00,63.8,57.2,30.07,ESE,121,0.0,0.0,79,0.00,,,0.00,Wunderground v.1.15,2013-08-08 04:14:00,
2013-08-08 00:19:00,63.7,57.1,30.08,ESE,121,0.0,0.0,79,0.00,,,0.00,Wunderground v.1.15,2013-08-08 04:19:00,
2013-08-08 00:24:00,63.6,57.0,30.07,ESE,121,0.0,0.0,79,0.00,,,0.00,Wunderground v.1.15,2013-08-08 04:24:00,
2013-08-08 00:29:00,63.6,57.0,30.07,ESE,121,0.0,0.0,79,0.00,,,0.00,Wunderground v.1.15,2013-08-08 04:29:00,
2013-08-08 00:34:00,63.7,57.4,30.06,ESE,121,0.0,0.0,80,0.00,,,0.00,Wunderground v.1.15,2013-08-08 04:34:00,
2013-08-08 00:39:00,63.8,57.5,30.06,ESE,121,0.0,0.0,80,0.00,,,0.00,Wunderground v.1.15,2013-08-08 04:39:00,
2013-08-08 00:44:00,63.8,57.5,30.06,ESE,121,0.0,0.0,80,0.00,,,0.00,Wunderground v.1.15,2013-08-08 04:44:00,
2013-08-08 00:49:00,63.8,57.5,30.06,ESE,121,0.0,0.0,80,0.00,,,0.00,Wunderground v.1.15,2013-08-08 04:49:00,
2013-08-08 00:54:00,63.8,57.5,30.06,ESE,121,0.0,0.0,80,0.00,,,0.00,Wunderground v.1.15,2013-08-08 04:54:00,
2013-08-08 00:59:00,63.7,57.4,30.06,ESE,121,0.0,0.0,80,0.00,,,0.00,Wunderground v.1.15,2013-08-08 04:59:00,
2013-08-08 01:09:00,63.7,57.4,30.06,ESE,121,0.0,0.0,80,0.00,,,0.00,Wunderground v.1.15,2013-08-08 05:09:00,
2013-08-08 01:19:00,63.6,57.3,30.05,ESE,121,0.0,0.0,80,0.00,,,0.00,Wunderground v.1.15,2013-08-08 05:19:00,
2013-08-08 01:24:00,63.6,57.3,30.06,ESE,121,0.0,0.0,80,0.00,,,0.00,Wunderground v.1.15,2013-08-08 05:24:00,
2013-08-08 01:29:00,63.6,57.3,30.06,ESE,121,0.0,0.0,80,0.00,,,0.00,Wunderground v.1.15,2013-08-08 05:29:00,
2013-08-08 01:34:00,63.7,57.4,30.05,ESE,121,0.0,0.0,80,0.00,,,0.00,Wunderground v.1.15,2013-08-08 05:34:00,
2013-08-08 01:44:00,63.9,57.6,30.05,ESE,121,0.0,0.0,80,0.00,,,0.00,Wunderground v.1.15,2013-08-08 05:44:00,
2013-08-08 01:54:00,64.0,57.7,30.05,ESE,121,0.0,0.0,80,0.00,,,0.00,Wunderground v.1.15,2013-08-08 05:54:00,
2013-08-08 01:59:00,64.1,57.8,30.05,ESE,121,0.0,0.0,80,0.00,,,0.00,Wunderground v.1.15,2013-08-08 05:59:00,
2013-08-08 02:04:00,64.3,58.0,30.05,ESE,121,0.0,0.0,80,0.00,,,0.00,Wunderground v.1.15,2013-08-08 06:04:00,
2013-08-08 02:09:00,64.4,58.1,30.05,ESE,121,0.0,0.0,80,0.00,,,0.00,Wunderground v.1.15,2013-08-08 06:09:00,
2013-08-08 02:14:00,64.5,57.8,30.05,ESE,121,0.0,0.0,79,0.00,,,0.00,Wunderground v.1.15,2013-08-08 06:14:00,
2013-08-08 02:19:00,64.6,58.3,30.05,ESE,121,0.0,0.0,80,0.00,,,0.00,Wunderground v.1.15,2013-08-08 06:19:00,
2013-08-08 02:24:00,64.7,58.0,30.05,ESE,121,0.0,0.0,79,0.00,,,0.00,Wunderground v.1.15,2013-08-08 06:24:00,
2013-08-08 02:29:00,64.8,58.1,30.05,ESE,121,0.0,0.0,79,0.00,,,0.00,Wunderground v.1.15,2013-08-08 06:29:00,
2013-08-08 02:34:00,64.9,58.2,30.05,ESE,121,0.0,0.0,79,0.00,,,0.00,Wunderground v.1.15,2013-08-08 06:34:00,
2013-08-08 02:44:00,65.0,58.3,30.05,ESE,121,0.0,0.0,79,0.00,,,0.00,Wunderground v.1.15,2013-08-08 06:44:00,
2013-08-08 02:49:00,65.1,58.4,30.05,ESE,121,0.0,0.0,79,0.00,,,0.00,Wunderground v.1.15,2013-08-08 06:49:00,
2013-08-08 02:54:00,65.2,58.2,30.04,ESE,121,0.0,2.0,78,0.00,,,0.00,Wunderground v.1.15,2013-08-08 06:54:00,
2013-08-08 03:04:00,65.5,58.5,30.04,ESE,121,0.0,0.0,78,0.00,,,0.00,Wunderground v.1.15,2013-08-08 07:04:00,
2013-08-08 03:09:00,65.6,58.6,30.04,ESE,121,0.0,0.0,78,0.00,,,0.00,Wunderground v.1.15,2013-08-08 07:09:00,
2013-08-08 03:14:00,65.6,58.6,30.04,ESE,121,0.0,0.0,78,0.00,,,0.00,Wunderground v.1.15,2013-08-08 07:14:00,
2013-08-08 03:19:00,65.6,58.6,30.04,ESE,121,0.0,0.0,78,0.00,,,0.00,Wunderground v.1.15,2013-08-08 07:19:00,
2013-08-08 03:24:00,65.6,58.6,30.03,ESE,121,0.0,0.0,78,0.00,,,0.00,Wunderground v.1.15,2013-08-08 07:24:00,
2013-08-08 03:29:00,65.6,58.6,30.04,ESE,121,0.0,0.0,78,0.00,,,0.00,Wunderground v.1.15,2013-08-08 07:29:00,
2013-08-08 03:34:00,65.7,58.7,30.03,ESE,121,0.0,0.0,78,0.00,,,0.00,Wunderground v.1.15,2013-08-08 07:34:00,
2013-08-08 03:39:00,65.7,59.0,30.03,ESE,121,0.0,0.0,79,0.00,,,0.00,Wunderground v.1.15,2013-08-08 07:39:00,
2013-08-08 03:44:00,65.7,59.0,30.04,ESE,121,0.0,0.0,79,0.00,,,0.00,Wunderground v.1.15,2013-08-08 07:44:00,
2013-08-08 03:49:00,65.7,59.4,30.03,ESE,121,0.0,0.0,80,0.00,,,0.00,Wunderground v.1.15,2013-08-08 07:49:00,
2013-08-08 03:54:00,65.7,59.4,30.03,ESE,121,0.0,0.0,80,0.00,,,0.00,Wunderground v.1.15,2013-08-08 07:54:00,
2013-08-08 04:04:00,65.7,59.7,30.03,ESE,121,0.0,0.0,81,0.00,,,0.00,Wunderground v.1.15,2013-08-08 08:04:00,
2013-08-08 04:14:00,65.7,59.7,30.03,ESE,121,0.0,0.0,81,0.00,,,0.00,Wunderground v.1.15,2013-08-08 08:14:00,
2013-08-08 04:19:00,65.7,60.4,30.03,ESE,121,0.0,0.0,83,0.00,,,0.00,Wunderground v.1.15,2013-08-08 08:19:00,
2013-08-08 04:24:00,65.7,60.7,30.03,ESE,121,0.0,0.0,84,0.00,,,0.00,Wunderground v.1.15,2013-08-08 08:24:00,
2013-08-08 04:29:00,65.6,61.0,30.03,ESE,121,0.0,0.0,85,0.00,,,0.00,Wunderground v.1.15,2013-08-08 08:29:00,
2013-08-08 04:34:00,65.4,61.1,30.03,ESE,121,0.0,0.0,86,0.00,,,0.00,Wunderground v.1.15,2013-08-08 08:34:00,
2013-08-08 04:39:00,65.1,61.1,30.02,ESE,121,0.0,0.0,87,0.00,,,0.00,Wunderground v.1.15,2013-08-08 08:39:00,
2013-08-08 04:44:00,64.9,60.9,30.02,ESE,121,0.0,0.0,87,0.00,,,0.00,Wunderground v.1.15,2013-08-08 08:44:00,
2013-08-08 04:49:00,64.8,61.2,30.02,ESE,121,0.0,0.0,88,0.00,,,0.00,Wunderground v.1.15,2013-08-08 08:49:00,
2013-08-08 04:54:00,64.6,61.3,30.02,ESE,121,0.0,0.0,89,0.00,,,0.00,Wunderground v.1.15,2013-08-08 08:54:00,
2013-08-08 04:59:00,64.4,61.1,30.02,ESE,121,0.0,0.0,89,0.00,,,0.00,Wunderground v.1.15,2013-08-08 08:59:00,
2013-08-08 05:04:00,64.4,61.4,30.02,ESE,121,0.0,0.0,90,0.00,,,0.00,Wunderground v.1.15,2013-08-08 09:04:00,
2013-08-08 05:14:00,64.3,61.3,30.01,ESE,121,0.0,0.0,90,0.00,,,0.00,Wunderground v.1.15,2013-08-08 09:14:00,
2013-08-08 05:24:00,64.2,61.5,30.01,ESE,121,0.0,0.0,91,0.00,,,0.00,Wunderground v.1.15,2013-08-08 09:24:00,
2013-08-08 05:29:00,64.3,61.6,30.01,ESE,121,0.0,0.0,91,0.00,,,0.00,Wunderground v.1.15,2013-08-08 09:29:00,
2013-08-08 05:34:00,64.3,61.6,30.01,ESE,121,0.0,0.0,91,0.00,,,0.00,Wunderground v.1.15,2013-08-08 09:34:00,
2013-08-08 05:39:00,64.3,61.6,30.01,ESE,121,0.0,0.0,91,0.00,,,0.00,Wunderground v.1.15,2013-08-08 09:39:00,
2013-08-08 05:44:00,64.3,61.6,30.01,ESE,121,0.0,0.0,91,0.00,,,0.00,Wunderground v.1.15,2013-08-08 09:44:00,
2013-08-08 05:49:00,64.3,61.9,30.01,ESE,121,0.0,0.0,92,0.00,,,0.00,Wunderground v.1.15,2013-08-08 09:49:00,
2013-08-08 05:54:00,64.4,62.0,30.00,ESE,121,0.0,0.0,92,0.00,,,0.00,Wunderground v.1.15,2013-08-08 09:54:00,
2013-08-08 05:59:00,64.4,62.0,30.01,ESE,121,0.0,0.0,92,0.00,,,0.00,Wunderground v.1.15,2013-08-08 09:59:00,
2013-08-08 06:04:00,64.5,62.1,30.01,ESE,121,0.0,0.0,92,0.00,,,0.00,Wunderground v.1.15,2013-08-08 10:04:00,
2013-08-08 06:14:00,64.6,62.2,30.01,ESE,121,0.0,0.0,92,0.00,,,0.00,Wunderground v.1.15,2013-08-08 10:14:00,
2013-08-08 06:19:00,64.6,62.2,30.01,ESE,121,0.0,0.0,92,0.00,,,0.00,Wunderground v.1.15,2013-08-08 10:19:00,
2013-08-08 06:24:00,64.6,62.2,30.01,ESE,121,0.0,0.0,92,0.00,,,0.00,Wunderground v.1.15,2013-08-08 10:24:00,
2013-08-08 06:34:00,64.6,62.5,30.01,ESE,121,0.0,0.0,93,0.00,,,0.00,Wunderground v.1.15,2013-08-08 10:34:00,
2013-08-08 06:39:00,64.6,62.5,30.01,ESE,121,0.0,0.0,93,0.00,,,0.00,Wunderground v.1.15,2013-08-08 10:39:00,
2013-08-08 06:44:00,64.7,62.6,30.01,ESE,121,0.0,0.0,93,0.00,,,0.00,Wunderground v.1.15,2013-08-08 10:44:00,
2013-08-08 06:49:00,64.8,62.7,30.01,ESE,121,0.0,0.0,93,0.00,,,0.00,Wunderground v.1.15,2013-08-08 10:49:00,
2013-08-08 06:54:00,65.0,62.9,30.01,ESE,121,0.0,0.0,93,0.00,,,0.00,Wunderground v.1.15,2013-08-08 10:54:00,
2013-08-08 06:59:00,65.1,63.0,30.01,ESE,121,0.0,0.0,93,0.00,,,0.00,Wunderground v.1.15,2013-08-08 10:59:00,
2013-08-08 07:04:00,65.3,63.2,30.01,ESE,121,0.0,0.0,93,0.00,,,0.00,Wunderground v.1.15,2013-08-08 11:04:00,
2013-08-08 07:09:00,65.5,63.4,30.01,ESE,121,0.0,0.0,93,0.00,,,0.00,Wunderground v.1.15,2013-08-08 11:09:00,
2013-08-08 07:14:00,65.8,63.4,30.02,ESE,121,0.0,0.0,92,0.00,,,0.00,Wunderground v.1.15,2013-08-08 11:14:00,
2013-08-08 07:19:00,66.0,63.6,30.02,ESE,121,0.0,0.0,92,0.00,,,0.00,Wunderground v.1.15,2013-08-08 11:19:00,
2013-08-08 07:29:00,66.3,63.9,30.02,ESE,121,0.0,0.0,92,0.00,,,0.00,Wunderground v.1.15,2013-08-08 11:29:00,
2013-08-08 07:34:00,66.5,64.1,30.02,ESE,121,0.0,0.0,92,0.00,,,0.00,Wunderground v.1.15,2013-08-08 11:34:00,
2013-08-08 07:39:00,66.7,64.3,30.02,ESE,121,0.0,0.0,92,0.00,,,0.00,Wunderground v.1.15,2013-08-08 11:39:00,
2013-08-08 07:49:00,66.9,64.5,30.02,ESE,121,0.0,0.0,92,0.00,,,0.00,Wunderground v.1.15,2013-08-08 11:49:00,
2013-08-08 07:54:00,67.0,64.6,30.02,ESE,121,0.0,0.0,92,0.00,,,0.00,Wunderground v.1.15,2013-08-08 11:54:00,
2013-08-08 07:59:00,67.0,64.6,30.02,ESE,121,0.0,0.0,92,0.00,,,0.00,Wunderground v.1.15,2013-08-08 11:59:00,
2013-08-08 08:09:00,67.3,64.9,30.01,ESE,121,0.0,0.0,92,0.00,,,0.00,Wunderground v.1.15,2013-08-08 12:09:00,
2013-08-08 08:14:00,67.6,65.2,30.01,ESE,121,0.0,0.0,92,0.00,,,0.00,Wunderground v.1.15,2013-08-08 12:14:00,
2013-08-08 08:19:00,67.9,65.5,30.01,ESE,121,0.0,0.0,92,0.00,,,0.00,Wunderground v.1.15,2013-08-08 12:19:00,
2013-08-08 08:24:00,68.3,65.9,30.01,ESE,121,0.0,0.0,92,0.00,,,0.00,Wunderground v.1.15,2013-08-08 12:24:00,
2013-08-08 08:29:00,68.7,66.0,30.01,ESE,121,0.0,0.0,91,0.00,,,0.00,Wunderground v.1.15,2013-08-08 12:29:00,
2013-08-08 08:34:00,69.2,66.5,30.01,ESE,121,0.0,0.0,91,0.00,,,0.00,Wunderground v.1.15,2013-08-08 12:34:00,
2013-08-08 08:39:00,69.7,67.0,30.01,ESE,121,0.0,0.0,91,0.00,,,0.00,Wunderground v.1.15,2013-08-08 12:39:00,
2013-08-08 08:49:00,70.2,67.1,30.01,ESE,121,0.0,0.0,90,0.00,,,0.00,Wunderground v.1.15,2013-08-08 12:49:00,
2013-08-08 08:54:00,70.5,67.4,30.01,ESE,121,0.0,0.0,90,0.00,,,0.00,Wunderground v.1.15,2013-08-08 12:54:00,
2013-08-08 09:04:00,71.1,67.7,30.01,ESE,121,0.0,1.0,89,0.00,,,0.00,Wunderground v.1.15,2013-08-08 13:04:00,
2013-08-08 09:09:00,71.3,67.9,30.01,ESE,121,0.0,0.0,89,0.00,,,0.00,Wunderground v.1.15,2013-08-08 13:09:00,
2013-08-08 09:14:00,71.4,68.0,30.01,ESE,121,0.0,0.0,89,0.00,,,0.00,Wunderground v.1.15,2013-08-08 13:14:00,
2013-08-08 09:19:00,71.5,68.1,30.01,ESE,121,0.0,1.0,89,0.00,,,0.00,Wunderground v.1.15,2013-08-08 13:19:00,
2013-08-08 09:24:00,71.7,68.3,30.01,ESE,121,0.0,1.0,89,0.00,,,0.00,Wunderground v.1.15,2013-08-08 13:24:00,
2013-08-08 09:29:00,71.9,68.8,30.01,ESE,121,0.0,0.0,90,0.00,,,0.00,Wunderground v.1.15,2013-08-08 13:29:00,
2013-08-08 09:34:00,72.2,69.1,30.01,ESE,111,0.0,0.0,90,0.00,,,0.00,Wunderground v.1.15,2013-08-08 13:34:00,
2013-08-08 09:39:00,72.5,69.1,30.01,ESE,112,0.0,0.0,89,0.00,,,0.00,Wunderground v.1.15,2013-08-08 13:39:00,
2013-08-08 09:44:00,73.0,69.6,30.01,ESE,111,0.0,0.0,89,0.00,,,0.00,Wunderground v.1.15,2013-08-08 13:44:00,
2013-08-08 09:49:00,73.7,69.9,30.01,ESE,112,0.0,0.0,88,0.00,,,0.00,Wunderground v.1.15,2013-08-08 13:49:00,
2013-08-08 09:59:00,74.4,69.9,30.02,ESE,111,0.0,0.0,86,0.00,,,0.00,Wunderground v.1.15,2013-08-08 13:59:00,
2013-08-08 10:09:00,74.1,69.6,30.01,ESE,111,0.0,0.0,86,0.00,,,0.00,Wunderground v.1.15,2013-08-08 14:09:00,
2013-08-08 10:14:00,74.0,69.9,30.01,ESE,112,0.0,0.0,87,0.00,,,0.00,Wunderground v.1.15,2013-08-08 14:14:00,
2013-08-08 10:19:00,74.0,69.9,30.01,ESE,111,0.0,0.0,87,0.00,,,0.00,Wunderground v.1.15,2013-08-08 14:19:00,
2013-08-08 10:24:00,74.0,70.2,30.01,ESE,112,0.0,0.0,88,0.00,,,0.00,Wunderground v.1.15,2013-08-08 14:24:00,
2013-08-08 10:29:00,74.3,70.2,30.00,ESE,112,0.0,0.0,87,0.00,,,0.00,Wunderground v.1.15,2013-08-08 14:29:00,
2013-08-08 10:34:00,74.5,70.4,30.00,ESE,110,0.0,0.0,87,0.00,,,0.00,Wunderground v.1.15,2013-08-08 14:34:00,
2013-08-08 10:39:00,74.6,70.5,30.00,ESE,110,0.0,0.0,87,0.00,,,0.00,Wunderground v.1.15,2013-08-08 14:39:00,
2013-08-08 10:44:00,74.6,70.5,30.00,ESE,110,0.0,0.0,87,0.00,,,0.00,Wunderground v.1.15,2013-08-08 14:44:00,
2013-08-08 10:49:00,74.8,71.0,30.00,ESE,110,0.0,0.0,88,0.00,,,0.00,Wunderground v.1.15,2013-08-08 14:49:00,
2013-08-08 10:59:00,75.5,71.4,30.00,ESE,110,0.0,3.0,87,0.00,,,0.00,Wunderground v.1.15,2013-08-08 14:59:00,
2013-08-08 11:04:00,75.8,71.7,30.00,ESE,110,0.0,3.0,87,0.00,,,0.00,Wunderground v.1.15,2013-08-08 15:04:00,
2013-08-08 11:14:00,75.8,71.3,30.00,ESE,114,0.0,0.0,86,0.00,,,0.00,Wunderground v.1.15,2013-08-08 15:14:00,
2013-08-08 11:19:00,75.8,71.3,30.00,ESE,114,0.0,0.0,86,0.00,,,0.00,Wunderground v.1.15,2013-08-08 15:19:00,
2013-08-08 11:24:00,76.1,71.6,29.99,ESE,114,0.0,0.0,86,0.00,,,0.00,Wunderground v.1.15,2013-08-08 15:24:00,
2013-08-08 11:29:00,76.2,71.4,29.99,ESE,114,0.0,0.0,85,0.00,,,0.00,Wunderground v.1.15,2013-08-08 15:29:00,
2013-08-08 11:34:00,76.5,72.0,29.99,ESE,114,0.0,0.0,86,0.00,,,0.00,Wunderground v.1.15,2013-08-08 15:34:00,
2013-08-08 11:39:00,77.1,72.6,29.99,ESE,113,0.0,1.0,86,0.00,,,0.00,Wunderground v.1.15,2013-08-08 15:39:00,
2013-08-08 11:44:00,77.8,72.6,29.98,ESE,114,0.0,1.0,84,0.00,,,0.00,Wunderground v.1.15,2013-08-08 15:44:00,
2013-08-08 11:54:00,78.7,72.7,29.98,ESE,120,0.0,0.0,82,0.00,,,0.00,Wunderground v.1.15,2013-08-08 15:54:00,
2013-08-08 11:59:00,78.7,72.7,29.98,ESE,110,0.0,0.0,82,0.00,,,0.00,Wunderground v.1.15,2013-08-08 15:59:00,
2013-08-08 12:04:00,79.0,73.0,29.98,ESE,111,0.0,2.0,82,0.00,,,0.00,Wunderground v.1.15,2013-08-08 16:04:00,
2013-08-08 12:09:00,79.5,73.5,29.98,ESE,111,0.0,1.0,82,0.00,,,0.00,Wunderground v.1.15,2013-08-08 16:09:00,
2013-08-08 12:14:00,80.1,73.4,29.98,ESE,111,0.0,1.0,80,0.00,,,0.00,Wunderground v.1.15,2013-08-08 16:14:00,
2013-08-08 12:19:00,80.3,73.6,29.98,ESE,111,0.0,0.0,80,0.00,,,0.00,Wunderground v.1.15,2013-08-08 16:19:00,
2013-08-08 12:24:00,80.7,74.0,29.98,ESE,110,0.0,0.0,80,0.00,,,0.00,Wunderground v.1.15,2013-08-08 16:24:00,
2013-08-08 12:34:00,80.5,73.4,29.97,ESE,105,0.0,0.0,79,0.00,,,0.00,Wunderground v.1.15,2013-08-08 16:34:00,
2013-08-08 12:39:00,80.9,73.8,29.97,ESE,105,0.0,0.0,79,0.00,,,0.00,Wunderground v.1.15,2013-08-08 16:39:00,
2013-08-08 12:44:00,81.1,74.0,29.98,ESE,105,0.0,0.0,79,0.00,,,0.00,Wunderground v.1.15,2013-08-08 16:44:00,
2013-08-08 12:49:00,81.2,72.9,29.98,ESE,105,0.0,0.0,76,0.00,,,0.00,Wunderground v.1.15,2013-08-08 16:49:00,
2013-08-08 12:59:00,80.6,73.5,29.98,ESE,105,0.0,0.0,79,0.00,,,0.00,Wunderground v.1.15,2013-08-08 16:59:00,
2013-08-08 13:04:00,80.6,73.1,29.99,ESE,105,0.0,0.0,78,0.00,,,0.00,Wunderground v.1.15,2013-08-08 17:04:00,
2013-08-08 13:09:00,80.7,73.6,29.98,ESE,105,0.0,0.0,79,0.00,,,0.00,Wunderground v.1.15,2013-08-08 17:09:00,
2013-08-08 13:14:00,80.8,73.7,29.99,ESE,105,0.0,0.0,79,0.00,,,0.00,Wunderground v.1.15,2013-08-08 17:14:00,
2013-08-08 13:19:00,80.8,73.3,29.99,ESE,105,0.0,2.0,78,0.00,,,0.00,Wunderground v.1.15,2013-08-08 17:19:00,
2013-08-08 13:24:00,80.5,73.4,29.99,ESE,105,0.0,2.0,79,0.00,,,0.00,Wunderground v.1.15,2013-08-08 17:24:00,
2013-08-08 13:34:00,80.5,73.8,29.98,ESE,105,0.0,0.0,80,0.00,,,0.00,Wunderground v.1.15,2013-08-08 17:34:00,
2013-08-08 13:39:00,80.5,73.4,29.98,ESE,105,0.0,0.0,79,0.00,,,0.00,Wunderground v.1.15,2013-08-08 17:39:00,
2013-08-08 13:44:00,80.5,73.4,29.98,ESE,105,0.0,0.0,79,0.00,,,0.00,Wunderground v.1.15,2013-08-08 17:44:00,
2013-08-08 13:54:00,80.8,73.7,29.98,ESE,105,0.0,0.0,79,0.00,,,0.00,Wunderground v.1.15,2013-08-08 17:54:00,
2013-08-08 13:59:00,81.0,73.9,29.98,ESE,105,0.0,0.0,79,0.00,,,0.00,Wunderground v.1.15,2013-08-08 17:59:00,
2013-08-08 14:04:00,81.2,74.1,29.98,ESE,105,0.0,0.0,79,0.00,,,0.00,Wunderground v.1.15,2013-08-08 18:04:00,
2013-08-08 14:09:00,81.2,73.7,29.98,ESE,105,0.0,0.0,78,0.00,,,0.00,Wunderground v.1.15,2013-08-08 18:09:00,
2013-08-08 14:14:00,81.1,73.2,29.98,ESE,105,0.0,0.0,77,0.00,,,0.00,Wunderground v.1.15,2013-08-08 18:14:00,
2013-08-08 14:19:00,81.1,74.0,29.98,ESE,105,0.0,0.0,79,0.00,,,0.00,Wunderground v.1.15,2013-08-08 18:19:00,
2013-08-08 14:24:00,81.0,73.9,29.98,ESE,105,0.0,0.0,79,0.00,,,0.00,Wunderground v.1.15,2013-08-08 18:24:00,
2013-08-08 14:29:00,80.8,73.7,29.98,ESE,105,0.0,0.0,79,0.00,,,0.00,Wunderground v.1.15,2013-08-08 18:29:00,
2013-08-08 14:34:00,80.7,74.0,29.98,ESE,105,0.0,3.0,80,0.00,,,0.00,Wunderground v.1.15,2013-08-08 18:34:00,
2013-08-08 14:44:00,80.4,74.0,29.97,ESE,105,0.0,0.0,81,0.00,,,0.00,Wunderground v.1.15,2013-08-08 18:44:00,
2013-08-08 14:49:00,80.3,73.9,29.97,ESE,105,0.0,0.0,81,0.00,,,0.00,Wunderground v.1.15,2013-08-08 18:49:00,
2013-08-08 14:54:00,80.2,73.8,29.97,ESE,105,0.0,0.0,81,0.00,,,0.00,Wunderground v.1.15,2013-08-08 18:54:00,
2013-08-08 15:04:00,80.3,73.9,29.97,ESE,105,0.0,1.0,81,0.00,,,0.00,Wunderground v.1.15,2013-08-08 19:04:00,
2013-08-08 15:09:00,80.3,73.6,29.97,ESE,105,0.0,0.0,80,0.00,,,0.00,Wunderground v.1.15,2013-08-08 19:09:00,
2013-08-08 15:14:00,80.5,74.1,29.97,ESE,105,0.0,0.0,81,0.00,,,0.00,Wunderground v.1.15,2013-08-08 19:14:00,
2013-08-08 15:19:00,80.4,73.7,29.97,ESE,105,0.0,0.0,80,0.00,,,0.00,Wunderground v.1.15,2013-08-08 19:19:00,
2013-08-08 15:24:00,80.4,74.0,29.97,ESE,105,0.0,0.0,81,0.00,,,0.00,Wunderground v.1.15,2013-08-08 19:24:00,
2013-08-08 15:29:00,80.7,74.3,29.97,ESE,105,0.0,0.0,81,0.00,,,0.00,Wunderground v.1.15,2013-08-08 19:29:00,
2013-08-08 15:34:00,80.8,74.0,29.97,ESE,105,0.0,2.0,80,0.00,,,0.00,Wunderground v.1.15,2013-08-08 19:34:00,
2013-08-08 15:39:00,80.7,73.6,29.97,ESE,105,0.0,1.0,79,0.00,,,0.00,Wunderground v.1.15,2013-08-08 19:39:00,
2013-08-08 15:44:00,80.6,73.5,29.96,ESE,105,0.0,1.0,79,0.00,,,0.00,Wunderground v.1.15,2013-08-08 19:44:00,
2013-08-08 15:54:00,80.8,73.7,29.96,ESE,105,0.0,0.0,79,0.00,,,0.00,Wunderground v.1.15,2013-08-08 19:54:00,
2013-08-08 15:59:00,81.0,73.5,29.96,ESE,105,0.0,0.0,78,0.00,,,0.00,Wunderground v.1.15,2013-08-08 19:59:00,
2013-08-08 16:09:00,81.4,74.3,29.96,ESE,105,0.0,0.0,79,0.00,,,0.00,Wunderground v.1.15,2013-08-08 20:09:00,
2013-08-08 16:19:00,81.5,74.0,29.96,ESE,105,0.0,0.0,78,0.00,,,0.00,Wunderground v.1.15,2013-08-08 20:19:00,
2013-08-08 16:24:00,81.4,73.9,29.95,ESE,105,0.0,0.0,78,0.00,,,0.00,Wunderground v.1.15,2013-08-08 20:24:00,
2013-08-08 16:29:00,81.2,73.7,29.95,ESE,105,0.0,0.0,78,0.00,,,0.00,Wunderground v.1.15,2013-08-08 20:29:00,
2013-08-08 16:34:00,81.1,73.6,29.96,ESE,105,0.0,0.0,78,0.00,,,0.00,Wunderground v.1.15,2013-08-08 20:34:00,
2013-08-08 16:39:00,80.9,73.4,29.95,ESE,105,0.0,0.0,78,0.00,,,0.00,Wunderground v.1.15,2013-08-08 20:39:00,
2013-08-08 16:44:00,80.9,73.4,29.96,ESE,105,0.0,0.0,78,0.00,,,0.00,Wunderground v.1.15,2013-08-08 20:44:00,
2013-08-08 16:49:00,80.8,73.7,29.96,ESE,105,0.0,0.0,79,0.00,,,0.00,Wunderground v.1.15,2013-08-08 20:49:00,
2013-08-08 16:54:00,80.6,73.5,29.96,ESE,105,0.0,0.0,79,0.00,,,0.00,Wunderground v.1.15,2013-08-08 20:54:00,
2013-08-08 17:04:00,80.6,73.9,29.95,ESE,105,0.0,0.0,80,0.00,,,0.00,Wunderground v.1.15,2013-08-08 21:04:00,
2013-08-08 17:14:00,80.6,73.9,29.95,ESE,105,0.0,0.0,80,0.00,,,0.00,Wunderground v.1.15,2013-08-08 21:14:00,
2013-08-08 17:24:00,80.7,73.6,29.95,ESE,105,0.0,0.0,79,0.00,,,0.00,Wunderground v.1.15,2013-08-08 21:24:00,
2013-08-08 17:29:00,80.8,74.0,29.95,ESE,105,0.0,0.0,80,0.00,,,0.00,Wunderground v.1.15,2013-08-08 21:29:00,
2013-08-08 17:34:00,80.9,74.1,29.95,ESE,105,0.0,0.0,80,0.00,,,0.00,Wunderground v.1.15,2013-08-08 21:34:00,
2013-08-08 17:39:00,80.9,73.8,29.95,ESE,105,0.0,0.0,79,0.00,,,0.00,Wunderground v.1.15,2013-08-08 21:39:00,
2013-08-08 17:44:00,81.0,74.2,29.95,ESE,105,0.0,0.0,80,0.00,,,0.00,Wunderground v.1.15,2013-08-08 21:44:00,
2013-08-08 17:49:00,81.0,74.2,29.95,ESE,105,0.0,0.0,80,0.00,,,0.00,Wunderground v.1.15,2013-08-08 21:49:00,
2013-08-08 17:54:00,81.0,74.2,29.94,ESE,105,0.0,0.0,80,0.00,,,0.00,Wunderground v.1.15,2013-08-08 21:54:00,
2013-08-08 18:04:00,80.5,73.8,29.94,ESE,105,0.0,0.0,80,0.00,,,0.00,Wunderground v.1.15,2013-08-08 22:04:00,
2013-08-08 18:14:00,80.1,73.4,29.94,ESE,105,0.0,4.0,80,0.00,,,0.00,Wunderground v.1.15,2013-08-08 22:14:00,
2013-08-08 18:19:00,79.8,73.1,29.94,ESE,105,0.0,0.0,80,0.00,,,0.00,Wunderground v.1.15,2013-08-08 22:19:00,
2013-08-08 18:29:00,79.5,73.2,29.94,ESE,105,0.0,0.0,81,0.00,,,0.00,Wunderground v.1.15,2013-08-08 22:29:00,
2013-08-08 18:34:00,79.3,73.3,29.94,ESE,105,0.0,0.0,82,0.00,,,0.00,Wunderground v.1.15,2013-08-08 22:34:00,
2013-08-08 18:39:00,79.1,73.1,29.94,ESE,105,0.0,0.0,82,0.00,,,0.00,Wunderground v.1.15,2013-08-08 22:39:00,
2013-08-08 18:44:00,78.9,72.9,29.94,ESE,105,0.0,0.0,82,0.00,,,0.00,Wunderground v.1.15,2013-08-08 22:44:00,
2013-08-08 18:54:00,78.7,73.1,29.94,ESE,105,0.0,0.0,83,0.00,,,0.00,Wunderground v.1.15,2013-08-08 22:54:00,
2013-08-08 18:59:00,78.7,73.1,29.94,ESE,105,0.0,0.0,83,0.00,,,0.00,Wunderground v.1.15,2013-08-08 22:59:00,
2013-08-08 19:09:00,78.4,72.8,29.94,ESE,105,0.0,0.0,83,0.00,,,0.00,Wunderground v.1.15,2013-08-08 23:09:00,
2013-08-08 19:14:00,78.2,72.6,29.94,ESE,105,0.0,0.0,83,0.00,,,0.00,Wunderground v.1.15,2013-08-08 23:14:00,
2013-08-08 19:19:00,78.0,72.8,29.94,ESE,105,0.0,0.0,84,0.00,,,0.00,Wunderground v.1.15,2013-08-08 23:19:00,
2013-08-08 19:24:00,77.9,72.7,29.95,ESE,105,0.0,0.0,84,0.00,,,0.00,Wunderground v.1.15,2013-08-08 23:24:00,
2013-08-08 19:29:00,77.7,72.5,29.95,ESE,105,0.0,0.0,84,0.00,,,0.00,Wunderground v.1.15,2013-08-08 23:29:00,
2013-08-08 19:34:00,77.6,72.4,29.95,ESE,105,0.0,0.0,84,0.00,,,0.00,Wunderground v.1.15,2013-08-08 23:34:00,
2013-08-08 19:44:00,77.2,72.3,29.96,ESE,105,0.0,0.0,85,0.00,,,0.00,Wunderground v.1.15,2013-08-08 23:44:00,
2013-08-08 19:49:00,77.0,72.1,29.95,ESE,105,0.0,0.0,85,0.00,,,0.00,Wunderground v.1.15,2013-08-08 23:49:00,
2013-08-08 19:54:00,76.8,72.3,29.95,ESE,105,0.0,0.0,86,0.00,,,0.00,Wunderground v.1.15,2013-08-08 23:54:00,
2013-08-08 20:04:00,76.4,71.9,29.95,ESE,105,0.0,0.0,86,0.00,,,0.00,Wunderground v.1.15,2013-08-09 00:04:00,
2013-08-08 20:14:00,76.1,71.9,29.96,ESE,105,0.0,0.0,87,0.00,,,0.00,Wunderground v.1.15,2013-08-09 00:14:00,
2013-08-08 20:19:00,75.9,71.8,29.96,ESE,105,0.0,0.0,87,0.00,,,0.00,Wunderground v.1.15,2013-08-09 00:19:00,
2013-08-08 20:24:00,75.7,71.9,29.97,ESE,105,0.0,0.0,88,0.00,,,0.00,Wunderground v.1.15,2013-08-09 00:24:00,
2013-08-08 20:34:00,75.4,71.6,29.97,ESE,105,0.0,0.0,88,0.00,,,0.00,Wunderground v.1.15,2013-08-09 00:34:00,
2013-08-08 20:39:00,75.2,71.7,29.97,ESE,105,0.0,0.0,89,0.00,,,0.00,Wunderground v.1.15,2013-08-09 00:39:00,
2013-08-08 20:44:00,75.0,71.5,29.98,ESE,105,0.0,0.0,89,0.00,,,0.00,Wunderground v.1.15,2013-08-09 00:44:00,
2013-08-08 20:54:00,74.8,71.7,29.97,ESE,105,0.0,0.0,90,0.00,,,0.00,Wunderground v.1.15,2013-08-09 00:54:00,
2013-08-08 20:59:00,74.8,71.7,29.97,ESE,105,0.0,0.0,90,0.00,,,0.00,Wunderground v.1.15,2013-08-09 00:59:00,
2013-08-08 21:04:00,74.7,71.6,29.97,ESE,105,0.0,0.0,90,0.00,,,0.00,Wunderground v.1.15,2013-08-09 01:04:00,
2013-08-08 21:09:00,74.7,71.6,29.97,ESE,105,0.0,0.0,90,0.00,,,0.00,Wunderground v.1.15,2013-08-09 01:09:00,
2013-08-08 21:19:00,74.6,71.5,29.97,ESE,105,0.0,0.0,90,0.00,,,0.00,Wunderground v.1.15,2013-08-09 01:19:00,
2013-08-08 21:24:00,74.5,71.4,29.97,ESE,105,0.0,0.0,90,0.00,,,0.00,Wunderground v.1.15,2013-08-09 01:24:00,
2013-08-08 21:29:00,74.4,71.6,29.97,ESE,105,0.0,0.0,91,0.00,,,0.00,Wunderground v.1.15,2013-08-09 01:29:00,
2013-08-08 21:34:00,74.3,71.5,29.97,ESE,105,0.0,0.0,91,0.00,,,0.00,Wunderground v.1.15,2013-08-09 01:34:00,
2013-08-08 21:39:00,74.2,71.4,29.97,ESE,105,0.0,0.0,91,0.00,,,0.00,Wunderground v.1.15,2013-08-09 01:39:00,
2013-08-08 21:49:00,74.1,71.3,29.97,ESE,105,0.0,0.0,91,0.00,,,0.00,Wunderground v.1.15,2013-08-09 01:49:00,
2013-08-08 21:54:00,74.1,71.3,29.97,ESE,105,0.0,0.0,91,0.00,,,0.00,Wunderground v.1.15,2013-08-09 01:54:00,
2013-08-08 22:04:00,73.9,71.1,29.97,ESE,105,0.0,0.0,91,0.00,,,0.00,Wunderground v.1.15,2013-08-09 02:04:00,
2013-08-08 22:09:00,73.9,71.4,29.97,ESE,105,0.0,0.0,92,0.00,,,0.00,Wunderground v.1.15,2013-08-09 02:09:00,
2013-08-08 22:14:00,73.7,71.2,29.97,ESE,105,0.0,0.0,92,0.00,,,0.00,Wunderground v.1.15,2013-08-09 02:14:00,
2013-08-08 22:19:00,73.7,71.2,29.97,ESE,105,0.0,0.0,92,0.00,,,0.00,Wunderground v.1.15,2013-08-09 02:19:00,
2013-08-08 22:24:00,73.6,71.1,29.97,ESE,105,0.0,0.0,92,0.00,,,0.00,Wunderground v.1.15,2013-08-09 02:24:00,
2013-08-08 22:34:00,73.5,71.4,29.97,ESE,105,0.0,0.0,93,0.00,,,0.00,Wunderground v.1.15,2013-08-09 02:34:00,
2013-08-08 22:39:00,73.4,70.9,29.97,ESE,105,0.0,0.0,92,0.00,,,0.00,Wunderground v.1.15,2013-08-09 02:39:00,
2013-08-08 22:44:00,73.4,71.3,29.97,ESE,105,0.0,0.0,93,0.00,,,0.00,Wunderground v.1.15,2013-08-09 02:44:00,
2013-08-08 22:54:00,73.3,71.2,29.96,ESE,105,0.0,0.0,93,0.00,,,0.00,Wunderground v.1.15,2013-08-09 02:54:00,
2013-08-08 23:04:00,73.2,71.1,29.96,ESE,105,0.0,0.0,93,0.00,,,0.00,Wunderground v.1.15,2013-08-09 03:04:00,
2013-08-08 23:09:00,73.1,71.0,29.96,ESE,105,0.0,0.0,93,0.00,,,0.00,Wunderground v.1.15,2013-08-09 03:09:00,
2013-08-08 23:14:00,73.2,71.1,29.96,ESE,105,0.0,0.0,93,0.00,,,0.00,Wunderground v.1.15,2013-08-09 03:14:00,
2013-08-08 23:19:00,73.2,71.1,29.95,ESE,105,0.0,0.0,93,0.00,,,0.00,Wunderground v.1.15,2013-08-09 03:19:00,
2013-08-08 23:24:00,73.2,71.4,29.95,ESE,105,0.0,0.0,94,0.00,,,0.00,Wunderground v.1.15,2013-08-09 03:24:00,
2013-08-08 23:34:00,73.3,71.2,29.95,ESE,105,0.0,0.0,93,0.00,,,0.00,Wunderground v.1.15,2013-08-09 03:34:00,
2013-08-08 23:39:00,73.3,71.2,29.95,ESE,105,0.0,0.0,93,0.00,,,0.00,Wunderground v.1.15,2013-08-09 03:39:00,
2013-08-08 23:49:00,73.3,71.2,29.96,ESE,105,0.0,0.0,93,0.00,,,0.00,Wunderground v.1.15,2013-08-09 03:49:00,
2013-08-08 23:54:00,73.2,71.4,29.96,ESE,105,0.0,0.0,94,0.00,,,0.00,Wunderground v.1.15,2013-08-09 03:54:00,
2013-08-08 23:59:00,73.2,71.4,29.96,ESE,105,0.0,0.0,94,0.00,,,0.00,Wunderground v.1.15,2013-08-09 03:59:00,